Weather in Novohryhorivka Druha

Ukraine / Kirovohrad Region     48°03′57″N   32°55′58″E
temp.,
°C
wind,
m/s
gust,
m/s
humid.,
%
clouds,
%
prec.,
mm/h
press.,
hPa
HPBL,
m
23 april, fri
fri2300:00+8ssw410862 0.0 1020213
03:00+7s4118716 0.0 1019236
06:00+7s5128897 0.0 1019267
09:00+11s71471100 0.0 1018566
12:00+17ssw9115050 0.0 10171655
15:00+15ssw101354100 1.1 10161704
18:00+11wsw6987100 5.0 1015601
21:00+7nnw6887100 9.6 1017590
24 april, sat
sat2400:00+6nnw488589 1.6 1018525
03:00+4w39930 3.4 1018245
06:00+3wnw410875 0.0 1019219
09:00+8nw68570 0.0 1020918
12:00+11wnw68395 0.0 10211879
15:00+12wnw71035100 0.0 10202675
18:00+9nw795284 0.0 10211457
21:00+6wnw33595 0.0 102329
25 april, sun
sun2500:00+4n22580 0.0 102312
03:00+4ssw11585 0.0 102310
06:00+3ssw226114 0.0 102212
09:00+9sw455345 0.0 1022561
12:00+12wsw454738 0.0 10201758
15:00+11wsw4557100 0.0 10191190
18:00+12sw455682 0.1 1018643
21:00+10wsw2370100 0.4 101888
26 april, mon
mon2600:00+7n3491100 0.8 1018194
03:00+6w498792 2.4 1018513
06:00+4nne5595100 2.9 1017402
09:00+4n688893 6.4 1018735
12:00+9nnw465653 0.1 10181521
15:00+11wnw5742100 0.1 10172382
18:00+11wnw564062 0.0 10162214
21:00+7w22547 0.0 101813
27 april, tue
tue2700:00+5wnw22625 0.0 101820
03:00+4sw116587 0.0 101710
06:00+5nw3565100 0.0 1017121
09:00+4e2294100 2.3 1018483
12:00+5s1794100 2.3 1019841
15:00+6nne118899 2.4 1017428
18:00+8nne2178100 0.0 1017311
21:00+5ene3589100 0.0 101895